Location: Dos Palmas
(32.4468°N, 116.8732°W)
Time: 19:58:53
(UTC+00:00)

N. Korean satellite - Pass Details

Date: 30 November 2022
Orbit: 407 x 442 km, 97.3° (Epoch: 05 February)

Event Time Altitude Azimuth Distance (km) Brightness Sun altitude
Rises 13:51:27 0° 350° (N) 2,516 9.9 -8.4°
Reaches altitude 10° 13:54:08 10° 327° (NNW) 1,629 8.7 -7.9°
Maximum altitude 13:56:16 16° 289° (WNW) 1,312 8.1 -7.5°
Drops below altitude 10° 13:58:24 10° 251° (WSW) 1,608 8.7 -7.0°
Sets 14:01:01 0° 228° (SW) 2,466 9.9 -6.5°
